Weather History for Sacramento, CA

Change the Weather History Date:

Tuesday, December 27, 2011

  Actual Average Record
Temperature  
Mean Temperature 45 °F -  
Max Temperature 61 °F 52 °F 68 °F (1953)
Min Temperature 28 °F 38 °F 26 °F (1956)
Degree Days  
Heating Degree Days 20    
Month to date heating degree days 525  
Cooling Degree Days 0    
Month to date cooling degree days 0  
Year to date cooling degree days 1153  
Moisture  
Dew Point 31 °F    
Average Humidity 63    
Maximum Humidity 92    
Minimum Humidity 33    
Precipitation  
Precipitation 0.00 in 0.11 in 0.78 in (1971)
Month to date precipitation 0.27 2.80  
Year to date precipitation 16.95 18.07  
Since 1 July precipitation 2.35 6.17  
Sea Level Pressure  
Sea Level Pressure 30.34 in    
Wind  
Wind Speed 2 mph (West)    
Max Wind Speed 8 mph    
Max Gust Speed 14 mph    
Visibility 7 miles    
Events      
T = Trace of Precipitation, MM = Missing Value Source: NWS Daily Summary

Daily Weather History Graph

Daily Weather History Graph

Search for Another Location

Airport:

Trip Planner

Search our weather history database for the weather conditions in past years. The results will help you decide how hot, cold, wet, or windy it might be!

Date:

Astronomy

Dec. 27, 2011 Rise Set
Actual Time 7:22 AM PST 4:51 PM PST
Civil Twilight 6:52 AM PST 5:21 PM PST
Nautical Twilight 6:19 AM PST 5:54 PM PST
Astronomical Twilight 5:46 AM PST 6:27 PM PST
Moon 9:22 AM PST (12/27) 8:28 PM PST (12/27)
Length of Visible Light 10h 29m
Length of Day
9h 29m
Waxing Crescent, 11% of the Moon is Illuminated
Dec 27
Waxing Crescent
Dec 31
First Quarter
Jan 8
Full
Jan 16
Last Quarter
Jan 22
New

Hourly Weather History & Observations

Time (PST) Temp. Windchill Dew Point Humidity Pressure Visibility Wind Dir Wind Speed Gust Speed Precip Events Conditions
12:53 AM 33.1 °F - 30.0 °F 89% 30.34 in 4.0 mi Calm Calm - N/A   Clear
1:53 AM 33.1 °F - 30.0 °F 89% 30.35 in 5.0 mi Calm Calm - N/A   Clear
2:53 AM 30.9 °F - 28.9 °F 92% 30.36 in 3.0 mi Calm Calm - N/A   Clear
3:53 AM 32.0 °F 28.7 °F 30.2 °F 93% 30.35 in 3.0 mi West 3.5 mph - N/A   Clear
4:53 AM 32.0 °F 28.7 °F 30.0 °F 92% 30.34 in 3.0 mi NE 3.5 mph - N/A   Clear
5:37 AM 28.4 °F - 26.6 °F 93% 30.35 in 2.0 mi Calm Calm - N/A   Clear
5:53 AM 28.0 °F 24.2 °F 27.0 °F 96% 30.35 in 1.8 mi WSW 3.5 mph - N/A   Clear
6:02 AM 28.4 °F 23.3 °F 26.6 °F 93% 30.35 in 4.0 mi West 4.6 mph - N/A   Clear
6:53 AM 32.0 °F - 30.0 °F 92% 30.35 in 4.0 mi Calm Calm - N/A   Clear
7:53 AM 33.1 °F 30.0 °F 30.0 °F 89% 30.36 in 4.0 mi North 3.5 mph - N/A   Clear
8:53 AM 39.0 °F 36.8 °F 34.0 °F 82% 30.39 in 8.0 mi SW 3.5 mph - N/A   Clear
9:53 AM 44.1 °F 41.5 °F 33.1 °F 65% 30.37 in 10.0 mi WNW 4.6 mph - N/A   Clear
10:53 AM 48.0 °F - 33.1 °F 56% 30.35 in 10.0 mi Calm Calm - N/A   Clear
11:53 AM 53.6 °F - 32.0 °F 44% 30.32 in 10.0 mi NNW 4.6 mph - N/A   Clear
12:53 PM 57.0 °F - 30.9 °F 37% 30.29 in 10.0 mi North 5.8 mph - N/A   Clear
1:53 PM 57.2 °F - 30.2 °F 36% 30.29 in 10.0 mi NNW 5.8 mph - N/A   Clear
2:53 PM 59.0 °F - 30.9 °F 35% 30.29 in 10.0 mi Calm Calm - N/A   Clear
3:53 PM 59.0 °F - 30.0 °F 33% 30.30 in 10.0 mi Calm Calm - N/A   Clear
4:53 PM 55.4 °F - 30.2 °F 38% 30.31 in 10.0 mi Calm Calm - N/A   Clear
5:53 PM 51.8 °F - 33.8 °F 50% 30.31 in 10.0 mi South 4.6 mph - N/A   Clear
6:53 PM 44.1 °F 42.5 °F 33.1 °F 65% 30.31 in 10.0 mi ESE 3.5 mph - N/A   Clear
7:53 PM 48.9 °F - 32.0 °F 52% 30.32 in 10.0 mi SSE 3.5 mph - N/A   Clear
8:53 PM 43.0 °F - 32.0 °F 65% 30.34 in 10.0 mi Calm Calm - N/A   Clear
9:53 PM 41.0 °F - 32.0 °F 70% 30.35 in 10.0 mi Calm Calm - N/A   Clear
10:53 PM 43.0 °F 40.3 °F 32.0 °F 65% 30.37 in 10.0 mi ESE 4.6 mph - N/A   Clear
11:53 PM 43.0 °F 41.3 °F 32.0 °F 65% 30.36 in 9.0 mi SE 3.5 mph - N/A   Clear